Regional Weather Roundup
Issued by NWS

Home | Current Version | Previous Version | Text Only | Print | Product List | Glossary Off
Versions: 1 2 3 4 5 6 7 8 9 10 11 12 13 14 15 16 17 18 19 20 21 22 23 24 25 26 27 28 29 30 31 32 33 34 35 36 37 38 39 40 41 42 43 44 45 46 47 48 49 50

412
ASUS43 KOAX 110110
RWRNE

WEATHER ROUNDUP FOR NEBRASKA
NATIONAL WEATHER SERVICE OMAHA NE
700 PM CST SAT DEC 10 2016

NOTES: SATELLITE DATA IS BEING USED TO AUGMENT CLOUD COVER ABOVE
       12000 FEET.
       "FAIR" INDICATES FEW OR NO CLOUDS BELOW 12,000 FEET WITH NO
       SIGNIFICANT WEATHER AND/OR OBSTRUCTIONS TO VISIBILITY.

  * THESE STATIONS DO NOT REPORT WEATHER SUCH AS RAIN...SNOW OR FOG.

NEZ001>004-019>022-054>056-110200-
NEBRASKA PANHANDLE

CITY           SKY/WX    TMP DP  RH WIND       PRES   REMARKS
SCOTTSBLUFF    CLOUDY    27  20  75 SE6       29.67F WCI  20
ALLIANCE       CLOUDY    28  23  81 S7        29.65F WCI  21
CHADRON        CLOUDY     8   4  83 SE6       29.69F WCI  -2
KIMBALL        CLOUDY    40  32  72 SW8       29.69F WCI  34
SIDNEY         CLOUDY    28  23  81 CALM      29.70F
$$

NEZ057>060-069>072-079>082-110200-
SOUTHWEST NEBRASKA

CITY           SKY/WX    TMP DP  RH WIND       PRES   REMARKS
NORTH PLATTE   CLOUDY    29  21  72 CALM      29.79S
IMPERIAL       CLOUDY    27  23  85 S3        29.76S
LEXINGTON      CLOUDY    31  23  74 S7        29.81F WCI  24
MCCOOK         CLOUDY    29  24  82 E5        29.79F WCI  24
OGALLALA       CLOUDY    29  25  83 SW6       29.76R WCI  23
$$

NEZ005>010-023>029-035>040-094-110200-
NORTH CENTRAL NEBRASKA

CITY           SKY/WX    TMP DP  RH WIND       PRES   REMARKS
VALENTINE      CLOUDY    14  11  87 NE3       29.77F
AINSWORTH      CLOUDY    23  21  89 E5        29.78S WCI  17
BROKEN BOW     CLOUDY    30  22  72 S8        29.79F WCI  22
O`NEILL        CLOUDY    28  21  76 SE10      29.84F WCI  18
ORD            CLOUDY    30  19  63 SE10      29.81F WCI  21
THEDFORD       CLOUDY    29  24  81 S9        29.77S WCI  21
$$

NEZ041-046>049-061>064-073>077-083>087-110200-
SOUTH CENTRAL NEBRASKA

CITY           SKY/WX    TMP DP  RH WIND       PRES   REMARKS
GRAND ISLAND   CLOUDY    30  21  69 S10       29.86F WCI  21
AURORA         CLOUDY    30  20  67 SE8       29.87F WCI  22
HASTINGS       CLOUDY    31  21  66 SE9       29.87F WCI  23
HEBRON         CLOUDY    31  22  67 SE7       29.92F WCI  25
HOLDREGE       CLOUDY    31  24  73 S8        29.81F WCI  24
KEARNEY *      CLOUDY    30  21  69 SE9       29.84F WCI  22
YORK           CLOUDY    28  19  69 SE10      29.90F WCI  19
$$

NEZ011>018-030>034-042>045-110200-
NORTHEAST NEBRASKA

CITY           SKY/WX    TMP DP  RH WIND       PRES   REMARKS
NORFOLK        CLOUDY    26  18  71 SE12      29.91F WCI  16
ALBION         PTCLDY    28  19  69 SE12      29.87F WCI  18
BLAIR          CLOUDY    30  20  66 SE9       29.98F WCI  21
FREMONT        CLOUDY    30  19  61 SE13G20   29.98F WCI  20
TEKAMAH        CLOUDY    28  20  71 SE14      30.01F WCI  17
WAYNE          CLOUDY    25  21  84 SE12      29.96F WCI  14
$$

NEZ050>053-065>068-078-088>093-110200-
SOUTHEAST NEBRASKA

CITY           SKY/WX    TMP DP  RH WIND       PRES   REMARKS
LINCOLN        CLOUDY    32  19  58 SE12      29.97F WCI  23
OMAHA EPPLEY   CLOUDY    31  17  56 SE16      30.02F WCI  20
BEATRICE       CLOUDY    33  22  64 SE10      29.95F WCI  25
FALLS CITY     CLOUDY    34  21  59 SE9       30.01F WCI  27
NEBRASKA CITY  CLOUDY    32  16  51 SE12G17   30.00F WCI  23
PLATTSMOUTH    CLOUDY    32  15  50 SE10G17   30.01S WCI  23
$$

NEZ044-045-051>053-067-110200-
OMAHA AREA

CITY           SKY/WX    TMP DP  RH WIND       PRES   REMARKS
OMAHA EPPLEY   CLOUDY    31  17  56 SE16      30.02F WCI  20
BLAIR          CLOUDY    30  20  66 SE9       29.98F WCI  21
FREMONT        CLOUDY    30  19  61 SE13G20   29.98F WCI  20
MILLARD        CLOUDY    33  19  56 SE13      30.00F WCI  24
OFFUTT AFB     CLOUDY    32  18  56 SE13      30.01F WCI  22
PLATTSMOUTH    CLOUDY    32  15  50 SE10G17   30.01S WCI  23
WAHOO          CLOUDY    31  17  58 SE15      29.96F WCI  20
$$




USA.gov is the U.S. government's official web portal to all federal, state and local government web resources and services.